Time,TemperatureF,DewpointF,PressureIn,WindDirection,WindDirectionDegrees,WindSpeedMPH,WindSpeedGustMPH,Humidity,HourlyPrecipIn,Conditions,Clouds,dailyrainin,SolarRadiationWatts/m^2,SoftwareType,DateUTC
2013-01-31 06:02:00,40.0,39.0,-100.00,NE,35,3.0,4.0,98,0.00,,,0.01,0.000000,,2013-01-31 14:02:00,
2013-01-31 06:11:00,40.0,39.0,-100.00,NE,35,3.0,4.0,98,0.00,,,0.01,0.000000,,2013-01-31 14:11:00,
2013-01-31 06:32:00,40.0,39.0,-100.00,NNE,27,2.0,4.0,98,0.00,,,0.01,0.000000,,2013-01-31 14:32:00,
2013-01-31 06:42:00,40.0,39.0,-100.00,NNE,27,2.0,4.0,98,0.00,,,0.01,0.000000,,2013-01-31 14:42:00,
2013-01-31 06:52:00,40.0,39.0,-100.00,NNE,27,2.0,4.0,98,0.00,,,0.01,0.000000,,2013-01-31 14:52:00,
2013-01-31 07:02:00,40.0,39.0,-100.00,NNE,27,2.0,4.0,98,0.00,,,0.01,0.000000,,2013-01-31 15:02:00,
2013-01-31 07:11:00,40.0,39.0,-100.00,NNE,27,2.0,4.0,98,0.00,,,0.01,0.000000,,2013-01-31 15:11:00,
2013-01-31 07:32:00,40.0,39.0,-100.00,ENE,59,2.0,4.0,98,0.00,,,0.01,0.000000,,2013-01-31 15:32:00,
2013-01-31 07:42:00,40.0,39.0,-100.00,ENE,59,2.0,4.0,98,0.00,,,0.01,0.000000,,2013-01-31 15:42:00,
2013-01-31 07:52:00,40.0,39.0,-100.00,ENE,59,2.0,4.0,98,0.00,,,0.01,0.000000,,2013-01-31 15:52:00,
2013-01-31 08:03:00,40.0,39.0,-100.00,ENE,59,2.0,4.0,98,0.00,,,0.01,0.000000,,2013-01-31 16:03:00,
2013-01-31 08:12:00,40.0,39.0,-100.00,ENE,59,2.0,4.0,98,0.00,,,0.01,0.000000,,2013-01-31 16:12:00,
2013-01-31 08:42:00,41.0,40.0,-100.00,NE,56,3.0,5.0,98,0.00,,,0.01,12.000000,,2013-01-31 16:42:00,
2013-01-31 08:52:00,41.0,40.0,-100.00,NE,56,3.0,5.0,98,0.00,,,0.01,12.000000,,2013-01-31 16:52:00,
2013-01-31 09:02:00,41.0,40.0,-100.00,NE,56,3.0,5.0,98,0.00,,,0.01,12.000000,,2013-01-31 17:02:00,
2013-01-31 09:12:00,41.0,40.0,-100.00,NE,56,3.0,5.0,98,0.00,,,0.01,12.000000,,2013-01-31 17:12:00,
2013-01-31 09:44:00,42.0,41.0,-100.00,NE,51,3.0,6.0,98,0.00,,,0.01,52.000000,,2013-01-31 17:44:00,
2013-01-31 09:53:00,42.0,41.0,-100.00,NE,51,3.0,6.0,98,0.00,,,0.01,52.000000,,2013-01-31 17:53:00,
2013-01-31 10:02:00,42.0,41.0,-100.00,NE,51,3.0,6.0,98,0.00,,,0.01,52.000000,,2013-01-31 18:02:00,
2013-01-31 10:12:00,42.0,41.0,-100.00,NE,51,3.0,6.0,98,0.00,,,0.01,52.000000,,2013-01-31 18:12:00,
2013-01-31 10:32:00,46.0,45.0,-100.00,NE,56,3.0,5.0,96,0.00,,,0.01,359.000000,,2013-01-31 18:32:00,
2013-01-31 10:43:00,46.0,45.0,-100.00,NE,56,3.0,5.0,96,0.00,,,0.01,359.000000,,2013-01-31 18:43:00,
2013-01-31 10:52:00,46.0,45.0,-100.00,NE,56,3.0,5.0,96,0.00,,,0.01,359.000000,,2013-01-31 18:52:00,
2013-01-31 11:02:00,46.0,45.0,-100.00,NE,56,3.0,5.0,96,0.00,,,0.01,359.000000,,2013-01-31 19:02:00,
2013-01-31 11:11:00,46.0,45.0,-100.00,NE,56,3.0,5.0,96,0.00,,,0.01,359.000000,,2013-01-31 19:11:00,
2013-01-31 11:33:00,49.0,47.0,-100.00,ENE,60,3.0,6.0,92,0.00,,,0.01,482.000000,,2013-01-31 19:33:00,
2013-01-31 11:43:00,49.0,47.0,-100.00,ENE,60,3.0,6.0,92,0.00,,,0.01,482.000000,,2013-01-31 19:43:00,
2013-01-31 11:52:00,49.0,47.0,-100.00,ENE,60,3.0,6.0,92,0.00,,,0.01,482.000000,,2013-01-31 19:52:00,
2013-01-31 12:02:00,49.0,47.0,-100.00,ENE,60,3.0,6.0,92,0.00,,,0.01,482.000000,,2013-01-31 20:02:00,
2013-01-31 12:11:00,49.0,47.0,-100.00,ENE,60,3.0,6.0,92,0.00,,,0.01,482.000000,,2013-01-31 20:11:00,
2013-01-31 13:42:00,52.0,46.0,-100.00,NE,51,4.0,6.0,81,-99.99,,,0.01,580.000000,,2013-01-31 21:42:00,
2013-01-31 13:52:00,52.0,46.0,-100.00,NE,51,4.0,6.0,81,-99.99,,,0.01,580.000000,,2013-01-31 21:52:00,
2013-01-31 14:02:00,52.0,46.0,-100.00,NE,51,4.0,6.0,81,-99.99,,,0.01,580.000000,,2013-01-31 22:02:00,
2013-01-31 14:11:00,52.0,46.0,-100.00,NE,51,4.0,6.0,81,-99.99,,,0.01,580.000000,,2013-01-31 22:11:00,
2013-01-31 14:33:00,52.0,46.0,-100.00,NNE,33,3.0,6.0,79,0.00,,,-99.99,420.000000,,2013-01-31 22:33:00,
2013-01-31 14:42:00,52.0,46.0,-100.00,NNE,33,3.0,6.0,79,0.00,,,-99.99,420.000000,,2013-01-31 22:42:00,
2013-01-31 14:52:00,52.0,46.0,-100.00,NNE,33,3.0,6.0,79,0.00,,,-99.99,420.000000,,2013-01-31 22:52:00,
2013-01-31 15:02:00,52.0,46.0,-100.00,NNE,33,3.0,6.0,79,0.00,,,-99.99,420.000000,,2013-01-31 23:02:00,
2013-01-31 15:12:00,52.0,46.0,-100.00,NNE,33,3.0,6.0,79,0.00,,,-99.99,420.000000,,2013-01-31 23:12:00,
2013-01-31 15:42:00,51.0,46.0,-100.00,NNE,19,3.0,5.0,84,0.00,,,0.01,199.000000,,2013-01-31 23:42:00,
2013-01-31 15:52:00,51.0,46.0,-100.00,NNE,19,3.0,5.0,84,0.00,,,0.01,199.000000,,2013-01-31 23:52:00,
2013-01-31 16:01:00,51.0,46.0,-100.00,NNE,19,3.0,5.0,84,0.00,,,0.01,199.000000,,2013-02-01 00:01:00,
2013-01-31 16:11:00,51.0,46.0,-100.00,NNE,19,3.0,5.0,84,0.00,,,0.01,199.000000,,2013-02-01 00:11:00,
2013-01-31 16:32:00,51.0,46.0,-100.00,NNE,15,4.0,5.0,84,0.00,,,-99.99,229.000000,,2013-02-01 00:32:00,
2013-01-31 16:42:00,51.0,46.0,-100.00,NNE,15,4.0,5.0,84,0.00,,,-99.99,229.000000,,2013-02-01 00:42:00,
2013-01-31 16:52:00,51.0,46.0,-100.00,NNE,15,4.0,5.0,84,0.00,,,-99.99,229.000000,,2013-02-01 00:52:00,
2013-01-31 17:01:00,51.0,46.0,-100.00,NNE,15,4.0,5.0,84,0.00,,,-99.99,229.000000,,2013-02-01 01:01:00,
2013-01-31 17:11:00,51.0,46.0,-100.00,NNE,15,4.0,5.0,84,0.00,,,-99.99,229.000000,,2013-02-01 01:11:00,
2013-01-31 17:32:00,48.0,46.0,-100.00,North,11,3.0,5.0,92,0.00,,,-99.99,76.000000,,2013-02-01 01:32:00,
2013-01-31 17:42:00,48.0,46.0,-100.00,North,11,3.0,5.0,92,0.00,,,-99.99,76.000000,,2013-02-01 01:42:00,
2013-01-31 17:52:00,48.0,46.0,-100.00,North,11,3.0,5.0,92,0.00,,,-99.99,76.000000,,2013-02-01 01:52:00,
2013-01-31 18:01:00,48.0,46.0,-100.00,North,11,3.0,5.0,92,0.00,,,-99.99,76.000000,,2013-02-01 02:01:00,
2013-01-31 18:11:00,48.0,46.0,-100.00,North,11,3.0,5.0,92,0.00,,,-99.99,76.000000,,2013-02-01 02:11:00,
2013-01-31 18:42:00,45.0,44.0,-100.00,NE,52,3.0,5.0,95,0.00,,,0.01,4.000000,,2013-02-01 02:42:00,
2013-01-31 18:52:00,45.0,44.0,-100.00,NE,52,3.0,5.0,95,0.00,,,0.01,4.000000,,2013-02-01 02:52:00,
2013-01-31 19:01:00,45.0,44.0,-100.00,NE,52,3.0,5.0,95,0.00,,,0.01,4.000000,,2013-02-01 03:01:00,
2013-01-31 19:11:00,45.0,44.0,-100.00,NE,52,3.0,5.0,95,0.00,,,0.01,4.000000,,2013-02-01 03:11:00,
2013-01-31 19:33:00,44.0,42.0,-100.00,NE,53,3.0,7.0,94,0.00,,,0.01,0.000000,,2013-02-01 03:33:00,
2013-01-31 19:42:00,44.0,42.0,-100.00,NE,53,3.0,7.0,94,0.00,,,0.01,0.000000,,2013-02-01 03:42:00,
2013-01-31 19:52:00,44.0,42.0,-100.00,NE,53,3.0,7.0,94,0.00,,,0.01,0.000000,,2013-02-01 03:52:00,
2013-01-31 20:02:00,44.0,42.0,-100.00,NE,53,3.0,7.0,94,0.00,,,0.01,0.000000,,2013-02-01 04:02:00,
2013-01-31 20:11:00,44.0,42.0,-100.00,NE,53,3.0,7.0,94,0.00,,,0.01,0.000000,,2013-02-01 04:11:00,
2013-01-31 20:32:00,43.0,42.0,-100.00,NE,54,3.0,6.0,96,0.00,,,0.01,0.000000,,2013-02-01 04:32:00,
2013-01-31 20:42:00,43.0,42.0,-100.00,NE,54,3.0,6.0,96,0.00,,,0.01,0.000000,,2013-02-01 04:42:00,
2013-01-31 20:52:00,43.0,42.0,-100.00,NE,54,3.0,6.0,96,0.00,,,0.01,0.000000,,2013-02-01 04:52:00,
2013-01-31 21:03:00,43.0,42.0,-100.00,NE,54,3.0,6.0,96,0.00,,,0.01,0.000000,,2013-02-01 05:03:00,
2013-01-31 21:11:00,43.0,42.0,-100.00,NE,54,3.0,6.0,96,0.00,,,0.01,0.000000,,2013-02-01 05:11:00,
2013-01-31 21:32:00,42.0,41.0,-100.00,NE,54,2.0,5.0,97,0.00,,,0.01,0.000000,,2013-02-01 05:32:00,
2013-01-31 21:42:00,42.0,41.0,-100.00,NE,54,2.0,5.0,97,0.00,,,0.01,0.000000,,2013-02-01 05:42:00,
2013-01-31 21:52:00,42.0,41.0,-100.00,NE,54,2.0,5.0,97,0.00,,,0.01,0.000000,,2013-02-01 05:52:00,
2013-01-31 22:02:00,42.0,41.0,-100.00,NE,54,2.0,5.0,97,0.00,,,0.01,0.000000,,2013-02-01 06:02:00,
2013-01-31 22:11:00,42.0,41.0,-100.00,NE,54,2.0,5.0,97,0.00,,,0.01,0.000000,,2013-02-01 06:11:00,
2013-01-31 22:32:00,40.0,39.0,-100.00,NE,52,2.0,4.0,97,0.00,,,0.01,0.000000,,2013-02-01 06:32:00,
2013-01-31 22:42:00,40.0,39.0,-100.00,NE,52,2.0,4.0,97,0.00,,,0.01,0.000000,,2013-02-01 06:42:00,
2013-01-31 22:52:00,40.0,39.0,-100.00,NE,52,2.0,4.0,97,0.00,,,0.01,0.000000,,2013-02-01 06:52:00,
2013-01-31 23:01:00,40.0,39.0,-100.00,NE,52,2.0,4.0,97,0.00,,,0.01,0.000000,,2013-02-01 07:01:00,
2013-01-31 23:11:00,40.0,39.0,-100.00,NE,52,2.0,4.0,97,0.00,,,0.01,0.000000,,2013-02-01 07:11:00,
2013-01-31 23:32:00,40.0,39.0,-100.00,NE,44,2.0,4.0,97,0.00,,,0.01,0.000000,,2013-02-01 07:32:00,
2013-01-31 23:42:00,40.0,39.0,-100.00,NE,44,2.0,4.0,97,0.00,,,0.01,0.000000,,2013-02-01 07:42:00,
2013-01-31 23:52:00,40.0,39.0,-100.00,NE,44,2.0,4.0,97,0.00,,,0.01,0.000000,,2013-02-01 07:52:00,